BAW269 EGLL-KLAX

Flight info

Callsign BAW269
Flight time N/A
Altitude 34000
Route CPT L9 DIDZA N14 OKTAD DCT MEDOG DCT VATRY DCT PIKIL/M083F360 NATA URTAK/N0485F360 DCT LAKES DCT 57N070W/N0488F380 55N080W 5230N09000W DCT KP18A DCT KU06W DCT KD87U DCT KU54O DCT NORRA J107 BLD DCT HAKMN ANJLL4
Aircraft A388/J-SADE2E3FGHIJ3J4J5M1RWXY/LB1D1

Departure

Time 2026-05-06 09:34
Airport London Heathrow Airport (EGLL)

Arrival

Time N/A
Airport Los Angeles International Airport (KLAX)
Time Latitude Longitude Altitude Speed Heading
2026-05-06 09:01 51.47220 -0.47736 92 ft 0 kts 89°
2026-05-06 09:15 51.47220 -0.47738 92 ft 2 kts 89°
2026-05-06 09:16 51.47220 -0.47767 94 ft 3 kts 89°
2026-05-06 09:16 51.47220 -0.47797 93 ft 3 kts 89°
2026-05-06 09:16 51.47224 -0.47826 94 ft 3 kts 112°
2026-05-06 09:16 51.47236 -0.47850 93 ft 3 kts 138°
2026-05-06 09:17 51.47252 -0.47863 93 ft 3 kts 162°
2026-05-06 09:17 51.47268 -0.47865 93 ft 0 kts 180°
2026-05-06 09:21 51.47261 -0.47865 93 ft 2 kts 180°
2026-05-06 09:21 51.47237 -0.47866 93 ft 5 kts 182°
2026-05-06 09:21 51.47194 -0.47869 95 ft 8 kts 182°
2026-05-06 09:22 51.47130 -0.47874 92 ft 11 kts 180°
2026-05-06 09:22 51.47042 -0.47873 93 ft 14 kts 179°
2026-05-06 09:22 51.46938 -0.47871 92 ft 13 kts 179°
2026-05-06 09:22 51.46848 -0.47870 92 ft 7 kts 180°
2026-05-06 09:23 51.46786 -0.47872 92 ft 10 kts 191°
2026-05-06 09:23 51.46745 -0.47945 96 ft 9 kts 266°
2026-05-06 09:23 51.46745 -0.47969 94 ft 3 kts 268°
2026-05-06 09:23 51.46743 -0.48028 92 ft 7 kts 268°
2026-05-06 09:24 51.46742 -0.48067 94 ft 0 kts 269°
2026-05-06 09:25 51.46742 -0.48095 94 ft 4 kts 269°
2026-05-06 09:26 51.46742 -0.48160 92 ft 7 kts 269°
2026-05-06 09:26 51.46741 -0.48247 92 ft 9 kts 269°
2026-05-06 09:26 51.46741 -0.48351 92 ft 10 kts 270°
2026-05-06 09:26 51.46741 -0.48444 92 ft 8 kts 270°
2026-05-06 09:27 51.46741 -0.48542 92 ft 7 kts 270°
2026-05-06 09:27 51.46741 -0.48620 92 ft 7 kts 270°
2026-05-06 09:27 51.46736 -0.48704 93 ft 1 kts 243°
2026-05-06 09:28 51.46734 -0.48709 94 ft 0 kts 232°
2026-05-06 09:28 51.46728 -0.48721 95 ft 1 kts 220°
2026-05-06 09:29 51.46719 -0.48730 96 ft 2 kts 206°
2026-05-06 09:29 51.46704 -0.48739 95 ft 0 kts 188°
2026-05-06 09:31 51.46694 -0.48741 96 ft 3 kts 188°
2026-05-06 09:31 51.46659 -0.48749 94 ft 8 kts 188°
2026-05-06 09:31 51.46588 -0.48773 94 ft 13 kts 194°
2026-05-06 09:31 51.46503 -0.48750 96 ft 13 kts 132°
2026-05-06 09:32 51.46479 -0.48664 96 ft 0 kts 93°
2026-05-06 09:33 51.46479 -0.48658 96 ft 2 kts 93°
2026-05-06 09:33 51.46475 -0.48504 96 ft 42 kts 92°
2026-05-06 09:33 51.46481 -0.47631 92 ft 112 kts 89°
2026-05-06 09:33 51.46483 -0.46123 94 ft 159 kts 90°
2026-05-06 09:34 51.46484 -0.44181 226 ft 178 kts 86°
2026-05-06 09:34 51.46437 -0.42235 824 ft 171 kts 90°
2026-05-06 09:34 51.46331 -0.40474 1340 ft 173 kts 95°
2026-05-06 09:34 51.46010 -0.38829 1599 ft 185 kts 118°
2026-05-06 09:35 51.45035 -0.37435 1868 ft 200 kts 157°
2026-05-06 09:35 51.43621 -0.37209 2014 ft 213 kts 193°
2026-05-06 09:35 51.42271 -0.38333 2163 ft 230 kts 220°
2026-05-06 09:35 51.40973 -0.40001 2448 ft 250 kts 220°
2026-05-06 09:36 51.39579 -0.41831 2775 ft 267 kts 221°
2026-05-06 09:36 51.38125 -0.43741 3419 ft 271 kts 221°
2026-05-06 09:36 51.36648 -0.45669 4035 ft 277 kts 221°
2026-05-06 09:36 51.35134 -0.47605 4749 ft 279 kts 221°
2026-05-06 09:37 51.33591 -0.49525 5421 ft 282 kts 221°
2026-05-06 09:37 51.32046 -0.51436 6214 ft 279 kts 222°
2026-05-06 09:37 51.30574 -0.53441 6956 ft 278 kts 225°
2026-05-06 09:37 51.29123 -0.55483 7599 ft 282 kts 225°
2026-05-06 09:38 51.27924 -0.57923 8242 ft 279 kts 249°
2026-05-06 09:38 51.27514 -0.60921 8811 ft 278 kts 274°
2026-05-06 09:38 51.27940 -0.63908 8992 ft 276 kts 299°
2026-05-06 09:38 51.29007 -0.66438 8993 ft 275 kts 309°
2026-05-06 09:39 51.30187 -0.68841 8990 ft 274 kts 309°
2026-05-06 09:39 51.31349 -0.71258 8993 ft 274 kts 308°
2026-05-06 09:39 51.32416 -0.73577 8994 ft 274 kts 307°
2026-05-06 09:39 51.33521 -0.76060 8993 ft 274 kts 306°
2026-05-06 09:40 51.34611 -0.78555 9070 ft 275 kts 306°
2026-05-06 09:40 51.35707 -0.81082 9399 ft 277 kts 306°
2026-05-06 09:40 51.37921 -0.86195 10357 ft 293 kts 306°
2026-05-06 09:41 51.39122 -0.88968 10513 ft 311 kts 306°
2026-05-06 09:41 51.40381 -0.91880 10692 ft 326 kts 306°
2026-05-06 09:41 51.41678 -0.94883 11195 ft 329 kts 306°
2026-05-06 09:41 51.42988 -0.97922 11729 ft 332 kts 305°
2026-05-06 09:42 51.44306 -1.00984 12298 ft 335 kts 305°
2026-05-06 09:42 51.45627 -1.04057 12819 ft 338 kts 305°
2026-05-06 09:42 51.46970 -1.07184 12994 ft 340 kts 305°
2026-05-06 09:42 51.48315 -1.10318 13023 ft 341 kts 305°
2026-05-06 09:43 51.49656 -1.13449 13026 ft 340 kts 305°
2026-05-06 09:43 51.51002 -1.16594 13149 ft 341 kts 305°
2026-05-06 09:43 51.52335 -1.19711 13628 ft 343 kts 304°
2026-05-06 09:43 51.53685 -1.22874 14156 ft 345 kts 304°
2026-05-06 09:44 51.55043 -1.26056 14704 ft 346 kts 304°
2026-05-06 09:44 51.56408 -1.29260 14955 ft 348 kts 304°
2026-05-06 09:44 51.57779 -1.32482 15017 ft 349 kts 304°
2026-05-06 09:44 51.59149 -1.35706 15018 ft 348 kts 304°
2026-05-06 09:45 51.60507 -1.38916 15018 ft 347 kts 303°
2026-05-06 09:45 51.61701 -1.42287 15018 ft 347 kts 297°
2026-05-06 09:45 51.62828 -1.45728 15019 ft 347 kts 298°
2026-05-06 09:45 51.63953 -1.49099 15078 ft 348 kts 298°
2026-05-06 09:46 51.65020 -1.52701 15373 ft 351 kts 292°
2026-05-06 09:46 51.65917 -1.56350 15922 ft 351 kts 292°
2026-05-06 09:46 51.66822 -1.60009 16397 ft 353 kts 292°
2026-05-06 09:46 51.67737 -1.63695 16876 ft 356 kts 292°
2026-05-06 09:47 51.68658 -1.67403 17337 ft 358 kts 291°
2026-05-06 09:47 51.69588 -1.71148 17792 ft 360 kts 291°
2026-05-06 09:47 51.70520 -1.74907 18225 ft 363 kts 291°
2026-05-06 09:47 51.71460 -1.78711 18636 ft 365 kts 291°
2026-05-06 09:48 51.72389 -1.82480 19035 ft 367 kts 291°
2026-05-06 09:48 51.73331 -1.86308 19410 ft 369 kts 291°
2026-05-06 09:48 51.74280 -1.90178 19796 ft 371 kts 291°
2026-05-06 09:48 51.75231 -1.94061 20169 ft 373 kts 291°
2026-05-06 09:49 51.76187 -1.97972 20537 ft 375 kts 291°
2026-05-06 09:49 51.77146 -2.01901 20925 ft 377 kts 291°
2026-05-06 09:49 51.78109 -2.05852 21303 ft 379 kts 291°
2026-05-06 09:49 51.79075 -2.09823 21683 ft 381 kts 290°
2026-05-06 09:50 51.80044 -2.13816 22044 ft 383 kts 290°
2026-05-06 09:50 51.81016 -2.17830 22431 ft 384 kts 290°
2026-05-06 09:50 51.81991 -2.21861 22788 ft 386 kts 290°
2026-05-06 09:50 51.82972 -2.25927 23150 ft 388 kts 290°
2026-05-06 09:51 51.83953 -2.29998 23531 ft 390 kts 290°
2026-05-06 09:51 51.84939 -2.34098 23843 ft 392 kts 290°
2026-05-06 09:51 51.85929 -2.38218 24139 ft 393 kts 290°
2026-05-06 09:51 51.86917 -2.42343 24447 ft 395 kts 290°
2026-05-06 09:52 51.87900 -2.46451 24726 ft 397 kts 290°
2026-05-06 09:52 51.88897 -2.50629 25036 ft 399 kts 290°
2026-05-06 09:52 51.89897 -2.54828 25341 ft 400 kts 290°
2026-05-06 09:52 51.90898 -2.59039 25662 ft 402 kts 290°
2026-05-06 09:53 51.91902 -2.63269 25989 ft 404 kts 290°
2026-05-06 09:53 51.92915 -2.67545 26313 ft 406 kts 290°
2026-05-06 09:53 51.93928 -2.71828 26663 ft 408 kts 290°
2026-05-06 09:53 51.94945 -2.76141 27018 ft 410 kts 290°
2026-05-06 09:54 51.95965 -2.80473 27362 ft 413 kts 290°
2026-05-06 09:54 51.96988 -2.84827 27724 ft 415 kts 290°
2026-05-06 09:54 51.98016 -2.89213 28079 ft 417 kts 290°
2026-05-06 09:54 51.99048 -2.93623 28441 ft 419 kts 290°
2026-05-06 09:55 52.00083 -2.98056 28795 ft 421 kts 290°
2026-05-06 09:55 52.01122 -3.02513 29152 ft 423 kts 290°
2026-05-06 09:55 52.02165 -3.07001 29522 ft 425 kts 290°
2026-05-06 09:55 52.03210 -3.11505 29876 ft 428 kts 290°
2026-05-06 09:56 52.04259 -3.16033 30224 ft 430 kts 290°
2026-05-06 09:56 52.05313 -3.20596 30545 ft 432 kts 289°
2026-05-06 09:56 52.06367 -3.25165 30886 ft 433 kts 289°
2026-05-06 09:56 52.07425 -3.29760 31230 ft 435 kts 289°
2026-05-06 09:57 52.08486 -3.34383 31557 ft 437 kts 289°
2026-05-06 09:57 52.09547 -3.39017 31860 ft 439 kts 289°
2026-05-06 09:57 52.10613 -3.43681 32179 ft 440 kts 289°
2026-05-06 09:57 52.11682 -3.48368 32498 ft 442 kts 289°
2026-05-06 09:58 52.12753 -3.53078 32790 ft 444 kts 289°
2026-05-06 09:58 52.13827 -3.57808 33102 ft 446 kts 289°
2026-05-06 09:58 52.14904 -3.62560 33411 ft 448 kts 289°
2026-05-06 09:58 52.15967 -3.67265 33701 ft 450 kts 289°
2026-05-06 09:59 52.17048 -3.72057 33985 ft 452 kts 289°
2026-05-06 09:59 52.18139 -3.76908 34035 ft 460 kts 289°
2026-05-06 09:59 52.20352 -3.86777 34038 ft 461 kts 289°
2026-05-06 10:00 52.22545 -3.96602 34029 ft 461 kts 288°
2026-05-06 10:00 52.24369 -4.04808 34032 ft 462 kts 288°
2026-05-06 10:01 52.26553 -4.14679 34030 ft 462 kts 288°
2026-05-06 10:01 52.29080 -4.26158 34028 ft 462 kts 288°
2026-05-06 10:02 52.30891 -4.34428 34020 ft 462 kts 288°
2026-05-06 10:02 52.33049 -4.44325 34021 ft 462 kts 288°
2026-05-06 10:03 52.35198 -4.54227 34022 ft 462 kts 288°
2026-05-06 10:03 52.37337 -4.64129 34027 ft 462 kts 288°
2026-05-06 10:04 52.39471 -4.74059 34027 ft 462 kts 288°
2026-05-06 10:04 52.41595 -4.83992 34032 ft 463 kts 288°
2026-05-06 10:05 52.43704 -4.93896 34032 ft 463 kts 288°
2026-05-06 10:05 52.45819 -5.03885 34036 ft 463 kts 288°
2026-05-06 10:06 52.47925 -5.13873 34034 ft 464 kts 288°
2026-05-06 10:06 52.50024 -5.23883 34038 ft 464 kts 288°
2026-05-06 10:07 52.52118 -5.33920 34037 ft 464 kts 288°
2026-05-06 10:07 52.54212 -5.43983 34038 ft 465 kts 288°
2026-05-06 10:08 52.57023 -5.53547 34038 ft 467 kts 302°
2026-05-06 10:08 52.60788 -5.62264 34034 ft 468 kts 304°
2026-05-06 10:09 52.64528 -5.70951 34032 ft 468 kts 304°
2026-05-06 10:09 52.68307 -5.79705 34036 ft 469 kts 304°
2026-05-06 10:10 52.72091 -5.88479 34036 ft 469 kts 304°
2026-05-06 10:10 52.75864 -5.97256 34038 ft 469 kts 304°
2026-05-06 10:11 52.79626 -6.06046 34033 ft 468 kts 304°
2026-05-06 10:11 52.83371 -6.14841 34032 ft 468 kts 304°
2026-05-06 10:12 52.87118 -6.23672 34029 ft 468 kts 303°
2026-05-06 10:12 52.90854 -6.32507 34029 ft 468 kts 303°
2026-05-06 10:13 52.94584 -6.41358 34028 ft 468 kts 303°
2026-05-06 10:13 52.98290 -6.50182 34030 ft 469 kts 303°
2026-05-06 10:14 53.02006 -6.59063 34040 ft 469 kts 303°
2026-05-06 10:14 53.05723 -6.67976 34043 ft 469 kts 303°
2026-05-06 10:15 53.09436 -6.76911 34043 ft 469 kts 303°
2026-05-06 10:15 53.13139 -6.85860 34045 ft 469 kts 303°
2026-05-06 10:16 53.16836 -6.94819 34040 ft 469 kts 303°
2026-05-06 10:16 53.20532 -7.03803 34042 ft 469 kts 303°
2026-05-06 10:17 53.24214 -7.12791 34040 ft 470 kts 303°
2026-05-06 10:17 53.27896 -7.21813 34041 ft 470 kts 303°
2026-05-06 10:18 53.31534 -7.30758 34038 ft 469 kts 303°
2026-05-06 10:18 53.35212 -7.39834 34038 ft 470 kts 304°
2026-05-06 10:19 53.38876 -7.48903 34030 ft 469 kts 304°
2026-05-06 10:19 53.42529 -7.57977 34037 ft 470 kts 304°
2026-05-06 10:20 53.46175 -7.67073 34032 ft 470 kts 304°
2026-05-06 10:20 53.49817 -7.76190 34040 ft 470 kts 304°
2026-05-06 10:21 53.53450 -7.85312 34039 ft 470 kts 304°
2026-05-06 10:21 53.57081 -7.94466 34036 ft 470 kts 304°
2026-05-06 10:22 53.60679 -8.03572 34037 ft 469 kts 304°
2026-05-06 10:22 53.64289 -8.12743 34039 ft 469 kts 304°
2026-05-06 10:23 53.67889 -8.21917 34030 ft 469 kts 304°
2026-05-06 10:23 53.71484 -8.31115 34030 ft 469 kts 304°
2026-05-06 10:24 53.75070 -8.40320 34027 ft 469 kts 304°
2026-05-06 10:24 53.78628 -8.49490 34026 ft 469 kts 304°
2026-05-06 10:25 53.82198 -8.58724 34017 ft 469 kts 303°
2026-05-06 10:25 53.85758 -8.67969 34014 ft 468 kts 303°
2026-05-06 10:26 53.89309 -8.77219 34010 ft 468 kts 303°
2026-05-06 10:26 53.92852 -8.86487 34008 ft 467 kts 303°
2026-05-06 10:27 53.96388 -8.95769 34009 ft 467 kts 303°
2026-05-06 10:27 53.99879 -9.04969 34014 ft 466 kts 303°
2026-05-06 10:28 54.03386 -9.14244 34021 ft 466 kts 303°
2026-05-06 10:28 54.06884 -9.23529 34035 ft 465 kts 303°
2026-05-06 10:29 54.10370 -9.32815 34046 ft 465 kts 303°
2026-05-06 10:29 54.13822 -9.42047 34050 ft 464 kts 303°
2026-05-06 10:30 54.17284 -9.51342 34048 ft 464 kts 303°
2026-05-06 10:30 54.20739 -9.60651 34051 ft 463 kts 303°
2026-05-06 10:31 54.24183 -9.69967 34046 ft 464 kts 303°
2026-05-06 10:31 54.27618 -9.79292 34050 ft 463 kts 303°
2026-05-06 10:32 54.31050 -9.88644 34056 ft 463 kts 303°
2026-05-06 10:32 54.34469 -9.97995 34055 ft 463 kts 302°
2026-05-06 10:33 54.37861 -10.07307 34050 ft 462 kts 302°
2026-05-06 10:33 54.41258 -10.16671 34062 ft 462 kts 302°
2026-05-06 10:34 54.44649 -10.26050 34053 ft 462 kts 302°
2026-05-06 10:34 54.48034 -10.35452 34050 ft 462 kts 302°
2026-05-06 10:35 54.51413 -10.44870 34048 ft 462 kts 302°
2026-05-06 10:35 54.54787 -10.54312 34052 ft 463 kts 302°
2026-05-06 10:36 54.58159 -10.63785 34050 ft 463 kts 302°
2026-05-06 10:36 54.61519 -10.73260 34053 ft 464 kts 302°
2026-05-06 10:37 54.64854 -10.82700 34045 ft 464 kts 301°
2026-05-06 10:37 54.68189 -10.92190 34049 ft 454 kts 304°
2026-05-06 10:38 54.71414 -11.01393 34051 ft 445 kts 304°
2026-05-06 10:38 54.74626 -11.10581 34053 ft 447 kts 304°
2026-05-06 10:39 54.77837 -11.19807 34048 ft 446 kts 304°
2026-05-06 10:39 54.81030 -11.29019 34045 ft 445 kts 304°
2026-05-06 10:40 54.84209 -11.38226 34046 ft 445 kts 304°
2026-05-06 10:40 54.87360 -11.47384 34047 ft 445 kts 303°
2026-05-06 10:41 54.90529 -11.56632 34046 ft 444 kts 303°
2026-05-06 10:41 54.93681 -11.65861 34043 ft 443 kts 303°
2026-05-06 10:42 54.96820 -11.75090 34037 ft 443 kts 303°
2026-05-06 10:42 54.99946 -11.84315 34035 ft 442 kts 303°
2026-05-06 10:43 55.03045 -11.93495 34030 ft 442 kts 303°
2026-05-06 10:44 55.07701 -12.07353 34032 ft 441 kts 303°
2026-05-06 10:44 55.10793 -12.16599 34034 ft 441 kts 303°
2026-05-06 10:45 55.13874 -12.25851 34033 ft 440 kts 303°
2026-05-06 10:45 55.16950 -12.35117 34028 ft 440 kts 303°
2026-05-06 10:46 55.19997 -12.44334 34031 ft 439 kts 302°
2026-05-06 10:46 55.23047 -12.53595 34027 ft 439 kts 302°
2026-05-06 10:47 55.26089 -12.62869 34026 ft 438 kts 302°
2026-05-06 10:47 55.29123 -12.72152 34028 ft 438 kts 302°
2026-05-06 10:48 55.32129 -12.81388 34024 ft 437 kts 302°
2026-05-06 10:48 55.35136 -12.90659 34025 ft 437 kts 302°
2026-05-06 10:49 55.38133 -12.99938 34025 ft 436 kts 302°
2026-05-06 10:49 55.40635 -13.07708 34015 ft 435 kts 302°
2026-05-06 10:50 55.43591 -13.16925 34015 ft 435 kts 302°
2026-05-06 10:50 55.47058 -13.27776 34015 ft 434 kts 301°
2026-05-06 10:51 55.49512 -13.35489 34017 ft 434 kts 301°
2026-05-06 10:51 55.52456 -13.44775 34013 ft 434 kts 301°
2026-05-06 10:52 55.55397 -13.54086 34015 ft 433 kts 301°
2026-05-06 10:52 55.58320 -13.63379 34006 ft 433 kts 301°
2026-05-06 10:53 55.61235 -13.72680 34009 ft 432 kts 301°
2026-05-06 10:53 55.64141 -13.81989 34002 ft 432 kts 301°
2026-05-06 10:54 55.67017 -13.91237 34002 ft 431 kts 301°
2026-05-06 10:54 55.69922 -14.00617 33996 ft 431 kts 301°
2026-05-06 10:55 55.72783 -14.09890 33996 ft 431 kts 300°
2026-05-06 10:55 55.75658 -14.19243 33998 ft 431 kts 300°
2026-05-06 10:56 55.78520 -14.28595 33998 ft 431 kts 300°
2026-05-06 10:56 55.81379 -14.37972 33993 ft 431 kts 300°
2026-05-06 10:57 55.84230 -14.47358 33993 ft 431 kts 300°
2026-05-06 10:57 55.87069 -14.56741 33994 ft 430 kts 300°
2026-05-06 10:58 55.89906 -14.66135 33991 ft 430 kts 300°
2026-05-06 10:58 55.92731 -14.75520 33991 ft 430 kts 300°
2026-05-06 10:59 55.95550 -14.84920 33986 ft 430 kts 299°
2026-05-06 10:59 55.98269 -14.94338 33987 ft 430 kts 295°
2026-05-06 11:00 56.00370 -15.04369 33983 ft 432 kts 289°
2026-05-06 11:00 56.01748 -15.14836 33987 ft 433 kts 285°
2026-05-06 11:01 56.03033 -15.25360 33992 ft 433 kts 285°
2026-05-06 11:01 56.04308 -15.35866 33985 ft 433 kts 285°
2026-05-06 11:02 56.05560 -15.46429 33983 ft 437 kts 285°
2026-05-06 11:02 56.06798 -15.56999 33981 ft 439 kts 284°
2026-05-06 11:03 56.08069 -15.67909 33987 ft 456 kts 284°
2026-05-06 11:03 56.09374 -15.79228 33985 ft 472 kts 284°
2026-05-06 11:04 56.10712 -15.90946 34010 ft 486 kts 284°
2026-05-06 11:04 56.11374 -15.96786 34884 ft 472 kts 284°
2026-05-06 11:04 56.12021 -16.02529 35494 ft 467 kts 283°
2026-05-06 11:04 56.12664 -16.08239 35893 ft 467 kts 283°
2026-05-06 11:05 56.13307 -16.13949 36207 ft 467 kts 283°
2026-05-06 11:05 56.13948 -16.19645 36401 ft 466 kts 283°
2026-05-06 11:05 56.14584 -16.25289 36562 ft 469 kts 283°
2026-05-06 11:05 56.15234 -16.31055 36732 ft 473 kts 283°
2026-05-06 11:06 56.15888 -16.36847 36985 ft 472 kts 283°
2026-05-06 11:06 56.16537 -16.42609 37187 ft 471 kts 283°
2026-05-06 11:06 56.17188 -16.48387 37388 ft 473 kts 283°
2026-05-06 11:06 56.17841 -16.54176 37673 ft 472 kts 282°
2026-05-06 11:07 56.18493 -16.59962 37835 ft 475 kts 282°
2026-05-06 11:07 56.19151 -16.65799 38007 ft 478 kts 282°
2026-05-06 11:07 56.19809 -16.71642 38367 ft 477 kts 282°
2026-05-06 11:07 56.20468 -16.77486 38712 ft 477 kts 282°
2026-05-06 11:08 56.21125 -16.83320 38940 ft 477 kts 282°
2026-05-06 11:08 56.21784 -16.89169 39156 ft 478 kts 282°
2026-05-06 11:08 56.22442 -16.95016 39362 ft 473 kts 282°
2026-05-06 11:08 56.23082 -17.00717 39485 ft 457 kts 282°
2026-05-06 11:09 56.23705 -17.06273 39608 ft 450 kts 282°
2026-05-06 11:09 56.24323 -17.11794 39741 ft 452 kts 282°
2026-05-06 11:09 56.24943 -17.17341 39878 ft 454 kts 282°
2026-05-06 11:09 56.25567 -17.22921 40015 ft 455 kts 282°
2026-05-06 11:10 56.26192 -17.28505 40151 ft 457 kts 282°
2026-05-06 11:10 56.26820 -17.34117 40299 ft 458 kts 282°
2026-05-06 11:10 56.27441 -17.39672 40426 ft 459 kts 282°
2026-05-06 11:10 56.28078 -17.45378 40576 ft 460 kts 282°
2026-05-06 11:11 56.28703 -17.50966 40718 ft 462 kts 282°
2026-05-06 11:11 56.29337 -17.56644 40860 ft 463 kts 282°
2026-05-06 11:11 56.29973 -17.62337 41002 ft 464 kts 282°
2026-05-06 11:11 56.30609 -17.68028 41141 ft 465 kts 282°
2026-05-06 11:12 56.31248 -17.73749 41283 ft 466 kts 282°
2026-05-06 11:12 56.31888 -17.79482 41422 ft 467 kts 282°
2026-05-06 11:12 56.32528 -17.85218 41561 ft 468 kts 282°
2026-05-06 11:12 56.33170 -17.90971 41702 ft 469 kts 282°
2026-05-06 11:13 56.33809 -17.96699 41845 ft 469 kts 282°
2026-05-06 11:13 56.34456 -18.02504 41996 ft 470 kts 282°
2026-05-06 11:13 56.35101 -18.08293 42129 ft 471 kts 282°
2026-05-06 11:13 56.35747 -18.14090 42266 ft 472 kts 282°
2026-05-06 11:14 56.36395 -18.19902 42406 ft 472 kts 282°
2026-05-06 11:14 56.37041 -18.25706 42543 ft 473 kts 282°
2026-05-06 11:14 56.37689 -18.31527 42680 ft 473 kts 282°
2026-05-06 11:14 56.38338 -18.37355 42823 ft 474 kts 282°
2026-05-06 11:15 56.38986 -18.43185 42943 ft 474 kts 282°
2026-05-06 11:15 56.39636 -18.49025 43081 ft 474 kts 282°
2026-05-06 11:15 56.40284 -18.54855 43210 ft 475 kts 282°
2026-05-06 11:15 56.40934 -18.60705 43330 ft 475 kts 282°
2026-05-06 11:16 56.41584 -18.66560 43470 ft 475 kts 282°
2026-05-06 11:16 56.42233 -18.72401 43597 ft 475 kts 282°
2026-05-06 11:16 56.42883 -18.78258 43724 ft 475 kts 282°
2026-05-06 11:16 56.43533 -18.84119 43867 ft 476 kts 282°
2026-05-06 11:17 56.44183 -18.89974 43975 ft 476 kts 282°
2026-05-06 11:17 56.44825 -18.95764 44093 ft 476 kts 282°
2026-05-06 11:17 56.45475 -19.01634 44213 ft 476 kts 282°
2026-05-06 11:17 56.46127 -19.07514 44331 ft 476 kts 282°
2026-05-06 11:18 56.46774 -19.13362 44444 ft 476 kts 282°
2026-05-06 11:18 56.47426 -19.19248 44553 ft 475 kts 282°
2026-05-06 11:18 56.48073 -19.25102 44658 ft 475 kts 282°
2026-05-06 11:19 56.49368 -19.36820 44851 ft 475 kts 282°
2026-05-06 11:19 56.50665 -19.48560 45041 ft 474 kts 282°
2026-05-06 11:20 56.51955 -19.60263 45212 ft 474 kts 282°
2026-05-06 11:20 56.53244 -19.71963 45374 ft 473 kts 282°
2026-05-06 11:21 56.53583 -19.83740 45020 ft 474 kts 262°
2026-05-06 11:21 56.52814 -19.89577 44224 ft 481 kts 252°
2026-05-06 11:21 56.51700 -19.95306 43461 ft 481 kts 257°
2026-05-06 11:21 56.51035 -20.01180 43034 ft 473 kts 266°
2026-05-06 11:22 56.50995 -20.07081 42578 ft 466 kts 277°
2026-05-06 11:22 56.51554 -20.12862 41860 ft 466 kts 285°
2026-05-06 11:22 56.52401 -20.18545 41162 ft 468 kts 287°
2026-05-06 11:22 56.53296 -20.24180 40754 ft 463 kts 286°
2026-05-06 11:23 56.54159 -20.29779 40410 ft 458 kts 285°
2026-05-06 11:23 56.54980 -20.35326 39999 ft 454 kts 285°
2026-05-06 11:23 56.55776 -20.40865 39513 ft 452 kts 285°
2026-05-06 11:23 56.56556 -20.46389 39026 ft 451 kts 284°
2026-05-06 11:24 56.57328 -20.51900 38536 ft 449 kts 284°
2026-05-06 11:24 56.58089 -20.57375 37927 ft 448 kts 284°
2026-05-06 11:24 56.58836 -20.62774 37336 ft 446 kts 284°
2026-05-06 11:24 56.59586 -20.68220 36736 ft 444 kts 284°
2026-05-06 11:25 56.60328 -20.73635 36163 ft 442 kts 284°
2026-05-06 11:25 56.61064 -20.79021 35960 ft 437 kts 284°
2026-05-06 11:25 56.61797 -20.84413 35943 ft 442 kts 284°
2026-05-06 11:26 56.63279 -20.95354 35948 ft 447 kts 283°
2026-05-06 11:26 56.64752 -21.06316 35948 ft 447 kts 283°
2026-05-06 11:27 56.66216 -21.17289 35952 ft 447 kts 283°
2026-05-06 11:27 56.67662 -21.28215 35953 ft 447 kts 283°
2026-05-06 11:28 56.69108 -21.39215 35945 ft 447 kts 283°
2026-05-06 11:28 56.70541 -21.50195 35943 ft 446 kts 283°
2026-05-06 11:29 56.71966 -21.61205 35939 ft 446 kts 283°
2026-05-06 11:29 56.73377 -21.72185 35942 ft 446 kts 283°
2026-05-06 11:30 56.74784 -21.83218 35944 ft 446 kts 283°
2026-05-06 11:30 56.76182 -21.94258 35956 ft 447 kts 282°
2026-05-06 11:31 56.77563 -22.05255 35959 ft 448 kts 282°
2026-05-06 11:31 56.78946 -22.16353 35968 ft 449 kts 282°
2026-05-06 11:32 56.80321 -22.27482 35978 ft 450 kts 282°
2026-05-06 11:32 56.81690 -22.38638 35983 ft 450 kts 282°
2026-05-06 11:33 56.83049 -22.49808 35987 ft 450 kts 282°
2026-05-06 11:33 56.84397 -22.60985 35989 ft 450 kts 282°
2026-05-06 11:34 56.85727 -22.72093 35989 ft 450 kts 282°
2026-05-06 11:34 56.87056 -22.83291 35992 ft 450 kts 282°
2026-05-06 11:35 56.88375 -22.94492 35988 ft 450 kts 282°
2026-05-06 11:35 56.89684 -23.05696 35992 ft 450 kts 281°
2026-05-06 11:36 56.90984 -23.16930 35989 ft 451 kts 281°
2026-05-06 11:36 56.92267 -23.28098 35998 ft 451 kts 281°
2026-05-06 11:37 56.93548 -23.39353 35999 ft 452 kts 281°
2026-05-06 11:37 56.94821 -23.50635 36006 ft 452 kts 281°
2026-05-06 11:38 56.95873 -23.60024 36007 ft 453 kts 281°
2026-05-06 11:38 56.97132 -23.71362 36014 ft 453 kts 281°
2026-05-06 11:39 56.98379 -23.82687 36019 ft 454 kts 281°
2026-05-06 11:39 56.99621 -23.94070 36019 ft 454 kts 281°
2026-05-06 11:40 57.00852 -24.05447 36025 ft 455 kts 281°
2026-05-06 11:40 57.02068 -24.16797 36026 ft 455 kts 280°
2026-05-06 11:41 57.03279 -24.28199 36027 ft 455 kts 280°
2026-05-06 11:41 57.04481 -24.39624 36033 ft 455 kts 280°
2026-05-06 11:42 57.05673 -24.51062 36036 ft 456 kts 280°
2026-05-06 11:42 57.06854 -24.62503 36038 ft 456 kts 280°
2026-05-06 11:43 57.08020 -24.73897 36040 ft 456 kts 280°
2026-05-06 11:43 57.09181 -24.85357 36042 ft 456 kts 280°
2026-05-06 11:44 57.10902 -25.02556 36039 ft 456 kts 279°
2026-05-06 11:44 57.12039 -25.14061 36050 ft 457 kts 279°
2026-05-06 11:45 57.13165 -25.25556 36055 ft 457 kts 279°
2026-05-06 11:45 57.14284 -25.37101 36053 ft 457 kts 279°
2026-05-06 11:46 57.15390 -25.48637 36061 ft 458 kts 279°
2026-05-06 11:46 57.16490 -25.60211 36060 ft 458 kts 279°
2026-05-06 11:47 57.17577 -25.71780 36071 ft 459 kts 279°
2026-05-06 11:47 57.18650 -25.83313 36068 ft 459 kts 279°
2026-05-06 11:48 57.19720 -25.94934 36068 ft 460 kts 279°
2026-05-06 11:48 57.20778 -26.06559 36074 ft 460 kts 279°
2026-05-06 11:49 57.21830 -26.18235 36078 ft 461 kts 279°
2026-05-06 11:49 57.22870 -26.29905 36085 ft 461 kts 279°
2026-05-06 11:50 57.23900 -26.41590 36086 ft 461 kts 278°
2026-05-06 11:50 57.24920 -26.53297 36086 ft 462 kts 278°
2026-05-06 11:51 57.25929 -26.65003 36091 ft 462 kts 278°
2026-05-06 11:51 57.26929 -26.76737 36091 ft 462 kts 278°
2026-05-06 11:52 57.27918 -26.88480 36096 ft 463 kts 278°
2026-05-06 11:52 57.28897 -27.00246 36099 ft 463 kts 278°
2026-05-06 11:53 57.29860 -27.11946 36105 ft 464 kts 278°
2026-05-06 11:53 57.30819 -27.23751 36108 ft 464 kts 278°
2026-05-06 11:54 57.31769 -27.35579 36111 ft 465 kts 278°
2026-05-06 11:54 57.32709 -27.47422 36117 ft 465 kts 278°
2026-05-06 11:55 57.33639 -27.59284 36120 ft 466 kts 278°
2026-05-06 11:55 57.34558 -27.71160 36123 ft 466 kts 278°
2026-05-06 11:56 57.35466 -27.83049 36125 ft 466 kts 277°
2026-05-06 11:56 57.36362 -27.94933 36127 ft 466 kts 277°
2026-05-06 11:57 57.37242 -28.06760 36128 ft 466 kts 277°
2026-05-06 11:57 57.38117 -28.18672 36133 ft 466 kts 277°
2026-05-06 11:58 57.38981 -28.30589 36133 ft 466 kts 277°
2026-05-06 11:58 57.39835 -28.42520 36135 ft 466 kts 277°
2026-05-06 11:59 57.40676 -28.54454 36136 ft 467 kts 277°
2026-05-06 11:59 57.41508 -28.66410 36140 ft 467 kts 277°
2026-05-06 12:00 57.42323 -28.78295 36142 ft 467 kts 277°
2026-05-06 12:00 57.43132 -28.90267 36143 ft 467 kts 277°
2026-05-06 12:01 57.43930 -29.02250 36146 ft 468 kts 277°
2026-05-06 12:01 57.44718 -29.14250 36155 ft 468 kts 277°
2026-05-06 12:02 57.45495 -29.26271 36154 ft 469 kts 276°
2026-05-06 12:02 57.46260 -29.38283 36157 ft 469 kts 276°
2026-05-06 12:03 57.47017 -29.50343 36161 ft 469 kts 276°
2026-05-06 12:03 57.47759 -29.62309 36161 ft 470 kts 276°
2026-05-06 12:04 57.48501 -29.74370 36161 ft 470 kts 276°
2026-05-06 12:04 57.49236 -29.86459 36162 ft 470 kts 276°
2026-05-06 12:05 57.49959 -29.98560 36166 ft 470 kts 276°
2026-05-06 12:05 57.51188 -30.10479 36165 ft 470 kts 285°
2026-05-06 12:06 57.53036 -30.22166 36161 ft 471 kts 285°
2026-05-06 12:06 57.54766 -30.33856 36166 ft 472 kts 284°
2026-05-06 12:07 57.56432 -30.45660 36174 ft 473 kts 284°
2026-05-06 12:07 57.58086 -30.57552 36176 ft 473 kts 284°
2026-05-06 12:08 57.59726 -30.69479 36179 ft 474 kts 284°
2026-05-06 12:08 57.61351 -30.81405 36179 ft 475 kts 284°
2026-05-06 12:09 57.62970 -30.93386 36190 ft 476 kts 284°
2026-05-06 12:09 57.64577 -31.05369 36196 ft 476 kts 284°
2026-05-06 12:10 57.66165 -31.17303 36195 ft 477 kts 284°
2026-05-06 12:10 57.67752 -31.29331 36196 ft 477 kts 284°
2026-05-06 12:11 57.69329 -31.41377 36197 ft 478 kts 284°
2026-05-06 12:11 57.70898 -31.53464 36198 ft 478 kts 284°
2026-05-06 12:12 57.72457 -31.65564 36199 ft 479 kts 284°
2026-05-06 12:12 57.74005 -31.77686 36204 ft 479 kts 284°
2026-05-06 12:13 57.75545 -31.89842 36205 ft 480 kts 283°
2026-05-06 12:13 57.77072 -32.02000 36213 ft 480 kts 283°
2026-05-06 12:14 57.78588 -32.14180 36208 ft 480 kts 283°
2026-05-06 12:14 57.80093 -32.26373 36214 ft 480 kts 283°
2026-05-06 12:15 57.81588 -32.38586 36211 ft 481 kts 283°
2026-05-06 12:15 57.83062 -32.50736 36212 ft 481 kts 283°
2026-05-06 12:16 57.84536 -32.62988 36214 ft 481 kts 283°
2026-05-06 12:16 57.86000 -32.75269 36216 ft 482 kts 283°
2026-05-06 12:17 57.87453 -32.87565 36221 ft 482 kts 283°
2026-05-06 12:17 57.88895 -32.99880 36226 ft 483 kts 283°
2026-05-06 12:18 57.90326 -33.12216 36225 ft 483 kts 283°
2026-05-06 12:18 57.91747 -33.24577 36230 ft 484 kts 283°
2026-05-06 12:19 57.93159 -33.36965 36231 ft 484 kts 283°
2026-05-06 12:19 57.94558 -33.49365 36236 ft 484 kts 283°
2026-05-06 12:20 57.95945 -33.61772 36235 ft 485 kts 283°
2026-05-06 12:20 57.97313 -33.74133 36248 ft 485 kts 283°
2026-05-06 12:21 57.98679 -33.86580 36249 ft 485 kts 283°
2026-05-06 12:21 58.00033 -33.99046 36248 ft 485 kts 283°
2026-05-06 12:22 58.01373 -34.11513 36239 ft 485 kts 282°
2026-05-06 12:22 58.02704 -34.24003 36240 ft 485 kts 282°
2026-05-06 12:23 58.04021 -34.36500 36254 ft 486 kts 282°
2026-05-06 12:23 58.05330 -34.49034 36246 ft 486 kts 282°
2026-05-06 12:24 58.06627 -34.61595 36257 ft 487 kts 282°
2026-05-06 12:24 58.07914 -34.74180 36251 ft 488 kts 282°
2026-05-06 12:25 58.08974 -34.84645 36254 ft 488 kts 282°
2026-05-06 12:25 58.10445 -34.99319 36260 ft 489 kts 282°
2026-05-06 12:26 58.11496 -35.09922 36257 ft 490 kts 282°
2026-05-06 12:26 58.12733 -35.22510 36263 ft 490 kts 282°
2026-05-06 12:27 58.13966 -35.35210 36263 ft 490 kts 282°
2026-05-06 12:27 58.15187 -35.47920 36267 ft 491 kts 282°
2026-05-06 12:28 58.16398 -35.60659 36262 ft 491 kts 282°
2026-05-06 12:28 58.17597 -35.73417 36266 ft 492 kts 281°
2026-05-06 12:29 58.18784 -35.86190 36266 ft 492 kts 281°
2026-05-06 12:29 58.19950 -35.98891 36270 ft 492 kts 281°
2026-05-06 12:30 58.21113 -36.11698 36270 ft 493 kts 281°
2026-05-06 12:30 58.22265 -36.24529 36271 ft 493 kts 281°
2026-05-06 12:31 58.23402 -36.37365 36275 ft 494 kts 281°
2026-05-06 12:31 58.24530 -36.50232 36273 ft 494 kts 281°
2026-05-06 12:32 58.25645 -36.63124 36276 ft 495 kts 281°
2026-05-06 12:32 58.26749 -36.76036 36275 ft 496 kts 281°
2026-05-06 12:33 58.27834 -36.88894 36283 ft 496 kts 281°
2026-05-06 12:33 58.28915 -37.01851 36286 ft 496 kts 281°